ENY4203 KDSM-KORD

Flight info

Callsign ENY4203
Flight time N/A
Altitude 35000
Route MYRRS FYTTE7
Aircraft E75L/M-SDE3GILORVW/S

Departure

Time 2026-04-29 21:51
Airport Des Moines International Airport (KDSM)

Arrival

Time N/A
Airport Chicago O'Hare International Airport (KORD)
Time Latitude Longitude Altitude Speed Heading
2026-04-29 21:39 41.53444 -93.65096 965 ft 0 kts 131°
2026-04-29 21:45 41.53445 -93.65097 965 ft 1 kts 131°
2026-04-29 21:45 41.53462 -93.65121 964 ft 4 kts 135°
2026-04-29 21:45 41.53482 -93.65144 966 ft 4 kts 151°
2026-04-29 21:46 41.53504 -93.65148 965 ft 2 kts 213°
2026-04-29 21:46 41.53506 -93.65146 965 ft 0 kts 215°
2026-04-29 21:48 41.53498 -93.65153 961 ft 3 kts 211°
2026-04-29 21:48 41.53466 -93.65163 966 ft 8 kts 185°
2026-04-29 21:48 41.53400 -93.65164 966 ft 11 kts 180°
2026-04-29 21:49 41.53307 -93.65164 963 ft 15 kts 180°
2026-04-29 21:49 41.53200 -93.65157 963 ft 13 kts 176°
2026-04-29 21:49 41.53120 -93.65117 964 ft 14 kts 135°
2026-04-29 21:49 41.53050 -93.65018 964 ft 16 kts 132°
2026-04-29 21:50 41.52993 -93.64959 960 ft 9 kts 171°
2026-04-29 21:50 41.52932 -93.65000 964 ft 12 kts 225°
2026-04-29 21:50 41.52944 -93.65086 961 ft 11 kts 311°
2026-04-29 21:50 41.53116 -93.65333 964 ft 74 kts 312°
2026-04-29 21:51 41.53630 -93.66078 986 ft 139 kts 314°
2026-04-29 21:51 41.54305 -93.67096 1669 ft 154 kts 312°
2026-04-29 21:51 41.55933 -93.69303 3228 ft 177 kts 315°
2026-04-29 21:52 41.56986 -93.70252 3711 ft 198 kts 342°
2026-04-29 21:52 41.58402 -93.70089 4281 ft 219 kts 22°
2026-04-29 21:52 41.59824 -93.69108 4796 ft 242 kts 27°
2026-04-29 21:52 41.61208 -93.67665 5268 ft 263 kts 42°
2026-04-29 21:53 41.62457 -93.65832 5978 ft 269 kts 46°
2026-04-29 21:53 41.63663 -93.63899 6746 ft 272 kts 47°
2026-04-29 21:53 41.64472 -93.62570 7238 ft 273 kts 47°
2026-04-29 21:53 41.65668 -93.60582 7950 ft 276 kts 47°
2026-04-29 21:54 41.66877 -93.58561 8591 ft 280 kts 47°
2026-04-29 21:54 41.68084 -93.56535 9246 ft 283 kts 47°
2026-04-29 21:54 41.69312 -93.54459 9895 ft 286 kts 47°
2026-04-29 21:54 41.70560 -93.52356 10479 ft 290 kts 47°
2026-04-29 21:55 41.71825 -93.50226 10944 ft 299 kts 47°
2026-04-29 21:55 41.73150 -93.47949 11115 ft 316 kts 48°
2026-04-29 21:55 41.74504 -93.45594 11605 ft 322 kts 47°
2026-04-29 21:55 41.75892 -93.43220 12175 ft 325 kts 47°
2026-04-29 21:56 41.77294 -93.40825 12784 ft 328 kts 47°
2026-04-29 21:56 41.78714 -93.38400 13417 ft 332 kts 47°
2026-04-29 21:56 41.80146 -93.35949 14056 ft 336 kts 47°
2026-04-29 21:56 41.81594 -93.33468 14653 ft 340 kts 46°
2026-04-29 21:57 41.83042 -93.30982 15264 ft 344 kts 46°
2026-04-29 21:57 41.84525 -93.28430 15868 ft 349 kts 46°
2026-04-29 21:57 41.86026 -93.25835 16498 ft 354 kts 46°
2026-04-29 21:57 41.87545 -93.23210 17154 ft 358 kts 46°
2026-04-29 21:58 41.89082 -93.20549 17794 ft 363 kts 46°
2026-04-29 21:58 41.90640 -93.17843 18471 ft 368 kts 46°
2026-04-29 21:58 41.92213 -93.15104 19078 ft 373 kts 46°
2026-04-29 21:58 41.93808 -93.12323 19682 ft 378 kts 46°
2026-04-29 21:59 41.95419 -93.09509 20302 ft 382 kts 46°
2026-04-29 21:59 41.97045 -93.06659 20903 ft 387 kts 47°
2026-04-29 21:59 41.98690 -93.03764 21495 ft 392 kts 47°
2026-04-29 21:59 42.00351 -93.00829 22072 ft 397 kts 47°
2026-04-29 22:00 42.02030 -92.97856 22655 ft 402 kts 47°
2026-04-29 22:00 42.03726 -92.94843 23243 ft 407 kts 47°
2026-04-29 22:00 42.05445 -92.91786 23812 ft 412 kts 47°
2026-04-29 22:00 42.07183 -92.88686 24352 ft 416 kts 47°
2026-04-29 22:01 42.08935 -92.85558 24887 ft 421 kts 47°
2026-04-29 22:01 42.10702 -92.82394 25428 ft 425 kts 47°
2026-04-29 22:01 42.12469 -92.79223 25948 ft 429 kts 47°
2026-04-29 22:01 42.14265 -92.75985 26457 ft 434 kts 47°
2026-04-29 22:02 42.16079 -92.72709 26914 ft 438 kts 47°
2026-04-29 22:02 42.17906 -92.69397 27281 ft 444 kts 47°
2026-04-29 22:02 42.19737 -92.66047 27236 ft 443 kts 47°
2026-04-29 22:02 42.21581 -92.62658 27214 ft 456 kts 47°
2026-04-29 22:03 42.23486 -92.59162 27112 ft 466 kts 47°